Time,TemperatureF,DewpointF,PressureIn,WindDirection,WindDirectionDegrees,WindSpeedMPH,WindSpeedGustMPH,Humidity,HourlyPrecipIn,Conditions,Clouds,dailyrainin,SoftwareType,DateUTC
2013-08-27 00:00:00,74.8,72.0,30.02,ENE,61,0.0,4.0,91,0.00,,,0.00,Weather View 32 v70,2013-08-27 04:00:00,
2013-08-27 00:01:00,74.7,71.9,30.02,ENE,61,2.0,4.0,91,0.00,,,0.00,Weather View 32 v70,2013-08-27 04:01:00,
2013-08-27 00:06:00,74.7,71.9,30.02,ENE,69,0.0,5.0,91,0.00,,,0.00,Weather View 32 v70,2013-08-27 04:06:00,
2013-08-27 00:11:00,74.6,72.1,30.02,East,82,6.0,7.0,92,0.00,,,0.00,Weather View 32 v70,2013-08-27 04:11:00,
2013-08-27 00:16:00,74.6,72.1,30.02,East,90,0.0,8.0,92,0.00,,,0.00,Weather View 32 v70,2013-08-27 04:16:00,
2013-08-27 00:21:00,74.6,72.1,30.02,East,82,0.0,8.0,92,0.00,,,0.00,Weather View 32 v70,2013-08-27 04:21:00,
2013-08-27 00:26:00,74.5,72.0,30.01,East,82,0.0,8.0,92,0.00,,,0.00,Weather View 32 v70,2013-08-27 04:26:00,
2013-08-27 00:31:00,74.5,72.0,30.01,East,82,0.0,8.0,92,0.00,,,0.00,Weather View 32 v70,2013-08-27 04:31:00,
2013-08-27 00:36:00,74.5,72.3,30.01,East,83,0.0,8.0,93,0.00,,,0.00,Weather View 32 v70,2013-08-27 04:36:00,
2013-08-27 00:41:00,74.5,72.3,30.02,East,83,0.0,8.0,93,0.00,,,0.00,Weather View 32 v70,2013-08-27 04:41:00,
2013-08-27 00:46:00,74.6,72.4,30.02,East,83,0.0,8.0,93,0.00,,,0.00,Weather View 32 v70,2013-08-27 04:46:00,
2013-08-27 00:51:00,74.6,72.4,30.02,East,97,0.0,8.0,93,0.00,,,0.00,Weather View 32 v70,2013-08-27 04:51:00,
2013-08-27 00:56:00,74.6,72.4,30.02,East,91,0.0,8.0,93,0.00,,,0.00,Weather View 32 v70,2013-08-27 04:56:00,
2013-08-27 01:01:00,74.6,72.4,30.02,ESE,109,0.0,8.0,93,0.00,,,0.00,Weather View 32 v70,2013-08-27 05:01:00,
2013-08-27 01:06:00,74.6,72.4,30.02,SE,136,3.0,8.0,93,0.00,,,0.00,Weather View 32 v70,2013-08-27 05:06:00,
2013-08-27 01:11:00,74.5,72.3,30.02,SE,132,2.0,8.0,93,0.00,,,0.00,Weather View 32 v70,2013-08-27 05:11:00,
2013-08-27 01:16:00,74.5,72.7,30.01,ESE,112,1.0,7.0,94,0.00,,,0.00,Weather View 32 v70,2013-08-27 05:16:00,
2013-08-27 01:21:00,74.5,72.7,30.01,ESE,110,0.0,7.0,94,0.00,,,0.00,Weather View 32 v70,2013-08-27 05:21:00,
2013-08-27 01:26:00,74.5,72.7,30.02,ESE,110,0.0,7.0,94,0.00,,,0.00,Weather View 32 v70,2013-08-27 05:26:00,
2013-08-27 01:31:00,74.4,72.6,30.01,ESE,109,0.0,7.0,94,0.00,,,0.00,Weather View 32 v70,2013-08-27 05:31:00,
2013-08-27 01:36:00,74.4,72.6,30.01,ESE,109,0.0,7.0,94,0.00,,,0.00,Weather View 32 v70,2013-08-27 05:36:00,
2013-08-27 01:41:00,74.4,72.6,30.01,ESE,109,0.0,7.0,94,0.00,,,0.00,Weather View 32 v70,2013-08-27 05:41:00,
2013-08-27 01:46:00,74.3,72.5,30.00,ESE,109,0.0,7.0,94,0.00,,,0.00,Weather View 32 v70,2013-08-27 05:46:00,
2013-08-27 01:52:00,74.3,72.5,30.01,ESE,109,0.0,7.0,94,0.00,,,0.00,Weather View 32 v70,2013-08-27 05:52:00,
2013-08-27 01:57:00,74.2,72.4,30.01,ESE,109,0.0,7.0,94,0.00,,,0.00,Weather View 32 v70,2013-08-27 05:57:00,
2013-08-27 02:02:00,74.2,72.4,30.00,ESE,109,0.0,6.0,94,0.00,,,0.00,Weather View 32 v70,2013-08-27 06:02:00,
2013-08-27 02:07:00,74.2,72.4,30.00,ESE,109,0.0,5.0,94,0.00,,,0.00,Weather View 32 v70,2013-08-27 06:07:00,
2013-08-27 02:12:00,74.2,72.4,30.00,ESE,109,0.0,5.0,94,0.00,,,0.00,Weather View 32 v70,2013-08-27 06:12:00,
2013-08-27 02:17:00,74.1,72.3,30.00,ESE,109,0.0,5.0,94,0.00,,,0.00,Weather View 32 v70,2013-08-27 06:17:00,
2013-08-27 02:22:00,74.1,72.3,30.00,ESE,109,0.0,3.0,94,0.00,,,0.00,Weather View 32 v70,2013-08-27 06:22:00,
2013-08-27 02:27:00,74.1,72.3,30.00,ESE,109,0.0,3.0,94,0.00,,,0.00,Weather View 32 v70,2013-08-27 06:27:00,
2013-08-27 02:32:00,74.1,72.3,30.00,ESE,109,0.0,3.0,94,0.00,,,0.00,Weather View 32 v70,2013-08-27 06:32:00,
2013-08-27 02:37:00,74.1,72.3,30.00,ESE,109,0.0,3.0,94,0.00,,,0.00,Weather View 32 v70,2013-08-27 06:37:00,
2013-08-27 02:42:00,74.1,72.3,30.00,ESE,106,0.0,4.0,94,0.00,,,0.00,Weather View 32 v70,2013-08-27 06:42:00,
2013-08-27 02:47:00,74.2,72.4,30.00,ESE,106,2.0,5.0,94,0.00,,,0.00,Weather View 32 v70,2013-08-27 06:47:00,
2013-08-27 02:52:00,74.2,72.4,30.00,East,98,0.0,5.0,94,0.00,,,0.00,Weather View 32 v70,2013-08-27 06:52:00,
2013-08-27 02:57:00,74.3,72.5,29.99,East,101,0.0,5.0,94,0.00,,,0.00,Weather View 32 v70,2013-08-27 06:57:00,
2013-08-27 03:02:00,74.3,72.5,29.99,East,101,0.0,5.0,94,0.00,,,0.00,Weather View 32 v70,2013-08-27 07:02:00,
2013-08-27 03:07:00,74.3,72.1,30.00,East,101,2.0,5.0,93,0.00,,,0.00,Weather View 32 v70,2013-08-27 07:07:00,
2013-08-27 03:12:00,74.3,72.1,29.99,ESE,103,0.0,5.0,93,0.00,,,0.00,Weather View 32 v70,2013-08-27 07:12:00,
2013-08-27 03:17:00,74.3,72.1,29.99,ESE,103,0.0,5.0,93,0.00,,,0.00,Weather View 32 v70,2013-08-27 07:17:00,
2013-08-27 03:22:00,74.3,72.1,29.99,ESE,103,0.0,5.0,93,0.00,,,0.00,Weather View 32 v70,2013-08-27 07:22:00,
2013-08-27 03:27:00,74.3,72.1,29.99,ESE,103,2.0,5.0,93,0.00,,,0.00,Weather View 32 v70,2013-08-27 07:27:00,
2013-08-27 03:32:00,74.3,72.1,29.99,East,101,0.0,5.0,93,0.00,,,0.00,Weather View 32 v70,2013-08-27 07:32:00,
2013-08-27 03:37:00,74.3,72.1,30.00,East,101,0.0,5.0,93,0.00,,,0.00,Weather View 32 v70,2013-08-27 07:37:00,
2013-08-27 03:42:00,74.2,72.0,30.00,East,101,0.0,5.0,93,0.00,,,0.00,Weather View 32 v70,2013-08-27 07:42:00,
2013-08-27 03:47:00,74.2,72.0,30.00,East,101,0.0,5.0,93,0.00,,,0.00,Weather View 32 v70,2013-08-27 07:47:00,
2013-08-27 03:52:00,74.1,71.9,29.99,East,101,0.0,5.0,93,0.00,,,0.00,Weather View 32 v70,2013-08-27 07:52:00,
2013-08-27 03:57:00,74.1,71.9,29.99,East,101,0.0,5.0,93,0.00,,,0.00,Weather View 32 v70,2013-08-27 07:57:00,
2013-08-27 04:02:00,74.1,71.9,29.99,East,101,0.0,5.0,93,0.00,,,0.00,Weather View 32 v70,2013-08-27 08:02:00,
2013-08-27 04:07:00,74.1,71.9,29.99,East,101,0.0,5.0,93,0.00,,,0.00,Weather View 32 v70,2013-08-27 08:07:00,
2013-08-27 04:12:00,74.0,71.8,29.98,East,101,0.0,5.0,93,0.00,,,0.00,Weather View 32 v70,2013-08-27 08:12:00,
2013-08-27 04:17:00,74.0,71.8,29.99,East,101,0.0,5.0,93,0.00,,,0.00,Weather View 32 v70,2013-08-27 08:17:00,
2013-08-27 04:22:00,74.0,72.2,29.98,East,101,0.0,5.0,94,0.00,,,0.00,Weather View 32 v70,2013-08-27 08:22:00,
2013-08-27 04:27:00,74.0,72.2,29.99,East,101,0.0,5.0,94,0.00,,,0.00,Weather View 32 v70,2013-08-27 08:27:00,
2013-08-27 04:32:00,73.9,72.1,29.99,East,101,0.0,5.0,94,0.00,,,0.00,Weather View 32 v70,2013-08-27 08:32:00,
2013-08-27 04:37:00,73.9,72.1,29.99,East,101,0.0,5.0,94,0.00,,,0.00,Weather View 32 v70,2013-08-27 08:37:00,
2013-08-27 04:42:00,73.7,71.9,29.99,East,101,0.0,3.0,94,0.00,,,0.00,Weather View 32 v70,2013-08-27 08:42:00,
2013-08-27 04:47:00,73.8,72.0,29.98,East,101,0.0,3.0,94,0.00,,,0.00,Weather View 32 v70,2013-08-27 08:47:00,
2013-08-27 04:52:00,73.7,71.9,29.99,East,101,0.0,3.0,94,0.00,,,0.00,Weather View 32 v70,2013-08-27 08:52:00,
2013-08-27 04:57:00,73.7,71.9,29.98,East,101,0.0,3.0,94,0.00,,,0.00,Weather View 32 v70,2013-08-27 08:57:00,
2013-08-27 05:02:00,73.6,71.8,29.98,East,101,0.0,1.0,94,0.00,,,0.00,Weather View 32 v70,2013-08-27 09:02:00,
2013-08-27 05:07:00,73.5,71.7,29.98,East,101,0.0,1.0,94,0.00,,,0.00,Weather View 32 v70,2013-08-27 09:07:00,
2013-08-27 05:12:00,73.5,71.7,29.98,East,101,0.0,1.0,94,0.00,,,0.00,Weather View 32 v70,2013-08-27 09:12:00,
2013-08-27 05:17:00,73.5,71.7,29.99,East,101,0.0,1.0,94,0.00,,,0.00,Weather View 32 v70,2013-08-27 09:17:00,
2013-08-27 05:22:00,73.6,71.8,29.98,East,101,0.0,1.0,94,0.00,,,0.00,Weather View 32 v70,2013-08-27 09:22:00,
2013-08-27 05:27:00,73.6,71.8,29.99,East,101,0.0,1.0,94,0.00,,,0.00,Weather View 32 v70,2013-08-27 09:27:00,
2013-08-27 05:32:00,73.5,71.7,29.98,East,101,0.0,1.0,94,0.00,,,0.00,Weather View 32 v70,2013-08-27 09:32:00,
2013-08-27 05:37:00,73.5,72.0,29.99,East,101,0.0,1.0,95,0.00,,,0.00,Weather View 32 v70,2013-08-27 09:37:00,
2013-08-27 05:42:00,73.5,71.7,29.99,East,101,0.0,1.0,94,0.00,,,0.00,Weather View 32 v70,2013-08-27 09:42:00,
2013-08-27 05:47:00,73.5,71.7,29.99,East,101,0.0,1.0,94,0.00,,,0.00,Weather View 32 v70,2013-08-27 09:47:00,
2013-08-27 05:52:00,73.6,72.1,29.99,East,101,0.0,1.0,95,0.00,,,0.00,Weather View 32 v70,2013-08-27 09:52:00,
2013-08-27 05:57:00,73.6,72.1,29.99,East,101,0.0,1.0,95,0.00,,,0.00,Weather View 32 v70,2013-08-27 09:57:00,
2013-08-27 06:02:00,73.6,72.1,29.99,East,101,0.0,1.0,95,0.00,,,0.00,Weather View 32 v70,2013-08-27 10:02:00,
2013-08-27 06:07:00,73.5,72.0,29.99,East,101,0.0,1.0,95,0.00,,,0.00,Weather View 32 v70,2013-08-27 10:07:00,
2013-08-27 06:12:00,73.5,72.0,29.99,East,101,0.0,1.0,95,0.00,,,0.00,Weather View 32 v70,2013-08-27 10:12:00,
2013-08-27 06:17:00,73.5,72.0,30.00,East,101,0.0,1.0,95,0.00,,,0.00,Weather View 32 v70,2013-08-27 10:17:00,
2013-08-27 06:22:00,73.5,72.0,30.00,East,101,0.0,1.0,95,0.00,,,0.00,Weather View 32 v70,2013-08-27 10:22:00,
2013-08-27 06:27:00,73.4,71.9,30.00,East,101,0.0,0.0,95,0.00,,,0.00,Weather View 32 v70,2013-08-27 10:27:00,
2013-08-27 06:32:00,73.4,71.9,30.00,East,101,0.0,0.0,95,0.00,,,0.00,Weather View 32 v70,2013-08-27 10:32:00,
2013-08-27 06:37:00,73.5,72.0,30.00,East,101,0.0,0.0,95,0.00,,,0.00,Weather View 32 v70,2013-08-27 10:37:00,
2013-08-27 06:42:00,73.5,72.0,30.00,East,101,0.0,0.0,95,0.00,,,0.00,Weather View 32 v70,2013-08-27 10:42:00,
2013-08-27 06:47:00,73.5,72.0,30.01,East,101,0.0,0.0,95,0.00,,,0.00,Weather View 32 v70,2013-08-27 10:47:00,
2013-08-27 06:52:00,73.6,72.1,30.01,East,101,0.0,0.0,95,0.00,,,0.00,Weather View 32 v70,2013-08-27 10:52:00,
2013-08-27 06:57:00,73.6,72.1,30.01,East,101,0.0,1.0,95,0.00,,,0.00,Weather View 32 v70,2013-08-27 10:57:00,
2013-08-27 07:02:00,73.7,72.2,30.00,East,101,0.0,1.0,95,0.00,,,0.00,Weather View 32 v70,2013-08-27 11:02:00,
2013-08-27 07:07:00,73.7,72.2,30.01,East,101,0.0,1.0,95,0.00,,,0.00,Weather View 32 v70,2013-08-27 11:07:00,
2013-08-27 07:12:00,73.7,72.2,30.01,East,101,0.0,1.0,95,0.00,,,0.00,Weather View 32 v70,2013-08-27 11:12:00,
2013-08-27 07:17:00,73.7,72.2,30.01,East,101,0.0,1.0,95,0.00,,,0.00,Weather View 32 v70,2013-08-27 11:17:00,
2013-08-27 07:22:00,73.7,72.2,30.01,East,101,0.0,1.0,95,0.00,,,0.00,Weather View 32 v70,2013-08-27 11:22:00,
2013-08-27 07:27:00,73.7,72.2,30.01,East,101,0.0,1.0,95,0.00,,,0.00,Weather View 32 v70,2013-08-27 11:27:00,
2013-08-27 07:32:00,73.8,72.3,30.01,East,101,0.0,1.0,95,0.00,,,0.00,Weather View 32 v70,2013-08-27 11:32:00,
2013-08-27 07:37:00,74.0,72.5,30.00,East,101,0.0,1.0,95,0.00,,,0.00,Weather View 32 v70,2013-08-27 11:37:00,
2013-08-27 07:42:00,74.3,72.8,30.01,East,101,0.0,1.0,95,0.00,,,0.00,Weather View 32 v70,2013-08-27 11:42:00,
2013-08-27 07:47:00,74.6,73.1,30.01,East,101,0.0,1.0,95,0.00,,,0.00,Weather View 32 v70,2013-08-27 11:47:00,
2013-08-27 07:52:00,75.2,73.7,30.01,East,101,0.0,1.0,95,0.00,,,0.00,Weather View 32 v70,2013-08-27 11:52:00,
2013-08-27 07:57:00,75.6,74.1,30.01,East,101,0.0,0.0,95,0.00,,,0.00,Weather View 32 v70,2013-08-27 11:57:00,
2013-08-27 08:02:00,76.0,74.5,30.01,East,101,0.0,0.0,95,0.00,,,0.00,Weather View 32 v70,2013-08-27 12:02:00,
2013-08-27 08:07:00,76.2,74.7,30.01,East,101,0.0,1.0,95,0.00,,,0.00,Weather View 32 v70,2013-08-27 12:07:00,
2013-08-27 08:12:00,76.6,75.1,30.01,East,101,0.0,1.0,95,0.00,,,0.00,Weather View 32 v70,2013-08-27 12:12:00,
2013-08-27 08:17:00,77.0,75.1,30.01,East,101,0.0,1.0,94,0.00,,,0.00,Weather View 32 v70,2013-08-27 12:17:00,
2013-08-27 08:22:00,77.1,74.9,30.01,East,101,0.0,1.0,93,0.00,,,0.00,Weather View 32 v70,2013-08-27 12:22:00,
2013-08-27 08:27:00,77.3,74.8,30.01,East,101,2.0,5.0,92,0.00,,,0.00,Weather View 32 v70,2013-08-27 12:27:00,
2013-08-27 08:32:00,77.5,75.0,30.01,ESE,120,5.0,5.0,92,0.00,,,0.00,Weather View 32 v70,2013-08-27 12:32:00,
2013-08-27 08:37:00,77.8,74.9,30.01,East,99,3.0,7.0,91,0.00,,,0.00,Weather View 32 v70,2013-08-27 12:37:00,
2013-08-27 08:42:00,78.0,75.1,30.01,East,82,5.0,8.0,91,0.00,,,0.00,Weather View 32 v70,2013-08-27 12:42:00,
2013-08-27 08:47:00,78.1,74.6,30.01,ESE,109,5.0,9.0,89,0.00,,,0.00,Weather View 32 v70,2013-08-27 12:47:00,
2013-08-27 08:52:00,78.4,75.2,30.01,ESE,109,0.0,9.0,90,0.00,,,0.00,Weather View 32 v70,2013-08-27 12:52:00,
2013-08-27 08:57:00,79.0,75.5,30.01,SE,132,1.0,9.0,89,0.00,,,0.00,Weather View 32 v70,2013-08-27 12:57:00,
2013-08-27 09:00:00,79.2,75.0,30.01,ESE,104,4.0,9.0,87,0.00,,,0.00,Weather View 32 v70,2013-08-27 13:00:00,
2013-08-27 09:02:00,79.3,75.4,30.01,SE,126,1.0,9.0,88,0.00,,,0.00,Weather View 32 v70,2013-08-27 13:02:00,
2013-08-27 09:07:00,79.7,75.0,30.01,SE,128,0.0,9.0,86,0.00,,,0.00,Weather View 32 v70,2013-08-27 13:07:00,
2013-08-27 09:12:00,80.2,75.6,30.01,East,92,0.0,9.0,86,0.00,,,0.00,Weather View 32 v70,2013-08-27 13:12:00,
2013-08-27 09:17:00,80.9,75.6,30.02,ESE,111,5.0,9.0,84,0.00,,,0.00,Weather View 32 v70,2013-08-27 13:17:00,
2013-08-27 09:22:00,80.7,75.4,30.02,East,99,2.0,10.0,84,0.00,,,0.00,Weather View 32 v70,2013-08-27 13:22:00,
2013-08-27 09:27:00,80.9,75.6,30.02,SE,130,2.0,10.0,84,0.00,,,0.00,Weather View 32 v70,2013-08-27 13:27:00,
2013-08-27 09:32:00,81.5,76.2,30.02,NNE,16,0.0,10.0,84,0.00,,,0.00,Weather View 32 v70,2013-08-27 13:32:00,
2013-08-27 09:37:00,82.1,75.7,30.02,East,101,3.0,10.0,81,0.00,,,0.00,Weather View 32 v70,2013-08-27 13:37:00,
2013-08-27 09:42:00,82.4,76.0,30.02,ENE,63,1.0,10.0,81,0.00,,,0.00,Weather View 32 v70,2013-08-27 13:42:00,
2013-08-27 09:47:00,82.6,75.8,30.02,NE,38,4.0,10.0,80,0.00,,,0.00,Weather View 32 v70,2013-08-27 13:47:00,
2013-08-27 09:52:00,82.7,75.9,30.02,ENE,57,0.0,10.0,80,0.00,,,0.00,Weather View 32 v70,2013-08-27 13:52:00,
2013-08-27 09:57:00,82.9,75.7,30.02,NE,56,0.0,10.0,79,0.00,,,0.00,Weather View 32 v70,2013-08-27 13:57:00,
2013-08-27 10:00:00,83.0,75.8,30.03,ENE,57,0.0,10.0,79,0.00,,,0.00,Weather View 32 v70,2013-08-27 14:00:00,
2013-08-27 10:02:00,83.1,75.9,30.02,NE,47,6.0,10.0,79,0.00,,,0.00,Weather View 32 v70,2013-08-27 14:02:00,
2013-08-27 10:07:00,82.9,75.7,30.02,ENE,68,4.0,10.0,79,0.00,,,0.00,Weather View 32 v70,2013-08-27 14:07:00,
2013-08-27 10:12:00,82.9,76.1,30.02,NE,36,4.0,10.0,80,0.00,,,0.00,Weather View 32 v70,2013-08-27 14:12:00,
2013-08-27 10:17:00,83.3,75.7,30.02,NE,51,4.0,10.0,78,0.00,,,0.00,Weather View 32 v70,2013-08-27 14:17:00,
2013-08-27 10:22:00,83.6,76.4,30.03,ESE,121,3.0,7.0,79,0.00,,,0.00,Weather View 32 v70,2013-08-27 14:22:00,
2013-08-27 10:28:00,83.9,76.3,30.03,SE,133,4.0,7.0,78,0.00,,,0.00,Weather View 32 v70,2013-08-27 14:28:00,
2013-08-27 10:33:00,84.3,76.7,30.03,East,91,5.0,7.0,78,0.00,,,0.00,Weather View 32 v70,2013-08-27 14:33:00,
2013-08-27 10:38:00,84.7,76.3,30.03,NE,49,4.0,7.0,76,0.00,,,0.00,Weather View 32 v70,2013-08-27 14:38:00,
2013-08-27 10:43:00,84.7,75.9,30.03,SE,130,0.0,9.0,75,0.00,,,0.00,Weather View 32 v70,2013-08-27 14:43:00,
2013-08-27 10:48:00,85.4,76.5,30.03,ENE,60,5.0,9.0,75,0.00,,,0.00,Weather View 32 v70,2013-08-27 14:48:00,
2013-08-27 10:53:00,85.5,75.8,30.04,East,88,2.0,9.0,73,0.00,,,0.00,Weather View 32 v70,2013-08-27 14:53:00,
2013-08-27 10:58:00,85.5,76.2,30.03,ENE,78,2.0,9.0,74,0.00,,,0.00,Weather View 32 v70,2013-08-27 14:58:00,
2013-08-27 11:00:00,85.9,76.6,30.03,ENE,77,0.0,9.0,74,0.00,,,0.00,Weather View 32 v70,2013-08-27 15:00:00,
2013-08-27 11:03:00,86.5,77.2,30.03,East,92,8.0,9.0,74,0.00,,,0.00,Weather View 32 v70,2013-08-27 15:03:00,
2013-08-27 11:08:00,86.6,76.0,30.03,ESE,119,7.0,10.0,71,0.00,,,0.00,Weather View 32 v70,2013-08-27 15:08:00,
2013-08-27 11:13:00,86.2,75.2,30.03,East,101,3.0,10.0,70,0.00,,,0.00,Weather View 32 v70,2013-08-27 15:13:00,
2013-08-27 11:18:00,85.4,75.3,30.03,ESE,118,0.0,10.0,72,0.00,,,0.00,Weather View 32 v70,2013-08-27 15:18:00,
2013-08-27 11:23:00,85.4,75.3,30.03,ESE,117,3.0,10.0,72,0.00,,,0.00,Weather View 32 v70,2013-08-27 15:23:00,
2013-08-27 11:28:00,85.4,75.7,30.03,ESE,109,0.0,10.0,73,0.00,,,0.00,Weather View 32 v70,2013-08-27 15:28:00,
2013-08-27 11:33:00,85.8,75.7,30.03,ENE,57,1.0,14.0,72,0.00,,,0.00,Weather View 32 v70,2013-08-27 15:33:00,
2013-08-27 11:38:00,85.5,75.4,30.03,NE,41,6.0,14.0,72,0.00,,,0.00,Weather View 32 v70,2013-08-27 15:38:00,
2013-08-27 11:43:00,85.5,75.4,30.02,ENE,78,3.0,14.0,72,0.00,,,0.00,Weather View 32 v70,2013-08-27 15:43:00,
2013-08-27 11:48:00,86.0,75.5,30.02,ESE,123,3.0,14.0,71,0.00,,,0.00,Weather View 32 v70,2013-08-27 15:48:00,
2013-08-27 11:53:00,86.3,75.7,30.02,SE,126,5.0,14.0,71,0.00,,,0.00,Weather View 32 v70,2013-08-27 15:53:00,
2013-08-27 11:58:00,86.8,75.4,30.02,SE,126,3.0,14.0,69,0.00,,,0.00,Weather View 32 v70,2013-08-27 15:58:00,
2013-08-27 12:00:00,87.1,75.6,30.02,SE,136,6.0,14.0,69,0.00,,,0.00,Weather View 32 v70,2013-08-27 16:00:00,
2013-08-27 12:03:00,87.2,75.3,30.02,SE,125,8.0,14.0,68,0.00,,,0.00,Weather View 32 v70,2013-08-27 16:03:00,
2013-08-27 12:08:00,87.2,75.7,30.02,ESE,112,3.0,14.0,69,0.00,,,0.00,Weather View 32 v70,2013-08-27 16:08:00,
2013-08-27 12:13:00,87.4,75.0,30.02,SE,132,11.0,14.0,67,0.00,,,0.00,Weather View 32 v70,2013-08-27 16:13:00,
2013-08-27 12:18:00,87.3,74.5,30.02,East,98,3.0,14.0,66,0.00,,,0.00,Weather View 32 v70,2013-08-27 16:18:00,
2013-08-27 12:23:00,87.7,76.2,30.02,East,97,3.0,14.0,69,0.00,,,0.00,Weather View 32 v70,2013-08-27 16:23:00,
2013-08-27 12:28:00,87.9,76.0,30.02,East,87,0.0,14.0,68,0.00,,,0.00,Weather View 32 v70,2013-08-27 16:28:00,
2013-08-27 12:33:00,88.0,75.6,30.02,SE,130,8.0,12.0,67,0.00,,,0.00,Weather View 32 v70,2013-08-27 16:33:00,
2013-08-27 12:38:00,88.3,75.9,30.01,ESE,113,1.0,12.0,67,0.00,,,0.00,Weather View 32 v70,2013-08-27 16:38:00,
2013-08-27 12:43:00,88.9,75.6,30.01,SE,141,0.0,12.0,65,0.00,,,0.00,Weather View 32 v70,2013-08-27 16:43:00,
2013-08-27 12:48:00,88.8,75.0,30.01,ESE,111,2.0,12.0,64,0.00,,,0.00,Weather View 32 v70,2013-08-27 16:48:00,
2013-08-27 12:53:00,87.9,75.5,30.01,ESE,104,5.0,12.0,67,0.00,,,0.00,Weather View 32 v70,2013-08-27 16:53:00,
2013-08-27 12:58:00,87.7,75.8,30.00,ESE,123,3.0,12.0,68,0.00,,,0.00,Weather View 32 v70,2013-08-27 16:58:00,
2013-08-27 13:00:00,87.9,75.1,30.00,SE,129,4.0,12.0,66,0.00,,,0.00,Weather View 32 v70,2013-08-27 17:00:00,
2013-08-27 13:03:00,88.3,75.0,30.00,SE,145,4.0,12.0,65,0.00,,,0.00,Weather View 32 v70,2013-08-27 17:03:00,
2013-08-27 13:08:00,89.1,76.2,30.00,East,85,3.0,12.0,66,0.00,,,0.00,Weather View 32 v70,2013-08-27 17:08:00,
2013-08-27 13:13:00,90.1,75.7,29.99,ESE,119,0.0,12.0,63,0.00,,,0.00,Weather View 32 v70,2013-08-27 17:13:00,
2013-08-27 13:18:00,90.5,75.6,30.00,SE,129,6.0,11.0,62,0.00,,,0.00,Weather View 32 v70,2013-08-27 17:18:00,
2013-08-27 13:23:00,90.7,75.8,29.99,East,88,3.0,11.0,62,0.00,,,0.00,Weather View 32 v70,2013-08-27 17:23:00,
2013-08-27 13:28:00,90.5,76.1,29.99,East,90,0.0,11.0,63,0.00,,,0.00,Weather View 32 v70,2013-08-27 17:28:00,
2013-08-27 13:33:00,89.8,75.5,29.99,SE,124,0.0,11.0,63,0.00,,,0.00,Weather View 32 v70,2013-08-27 17:33:00,
2013-08-27 13:38:00,89.2,75.4,29.99,SE,141,8.0,11.0,64,0.00,,,0.00,Weather View 32 v70,2013-08-27 17:38:00,
2013-08-27 13:43:00,88.6,75.3,29.99,East,96,0.0,11.0,65,0.00,,,0.00,Weather View 32 v70,2013-08-27 17:43:00,
2013-08-27 13:48:00,89.1,76.2,29.98,SE,124,1.0,11.0,66,0.00,,,0.00,Weather View 32 v70,2013-08-27 17:48:00,
2013-08-27 13:53:00,89.8,75.5,29.98,ENE,57,0.0,11.0,63,0.00,,,0.00,Weather View 32 v70,2013-08-27 17:53:00,
2013-08-27 13:58:00,90.1,75.3,29.98,ESE,103,1.0,11.0,62,0.00,,,0.00,Weather View 32 v70,2013-08-27 17:58:00,
2013-08-27 14:00:00,90.2,75.4,29.98,SE,125,4.0,11.0,62,0.00,,,0.00,Weather View 32 v70,2013-08-27 18:00:00,
2013-08-27 14:03:00,90.2,76.3,29.98,ENE,74,0.0,11.0,64,0.00,,,0.00,Weather View 32 v70,2013-08-27 18:03:00,
2013-08-27 14:08:00,89.4,76.9,29.98,East,90,10.0,11.0,67,0.00,,,0.00,Weather View 32 v70,2013-08-27 18:08:00,
2013-08-27 14:13:00,88.7,75.8,29.98,ENE,67,3.0,11.0,66,0.00,,,0.00,Weather View 32 v70,2013-08-27 18:13:00,
2013-08-27 14:18:00,87.9,76.0,29.98,ESE,103,8.0,15.0,68,0.00,,,0.00,Weather View 32 v70,2013-08-27 18:18:00,
2013-08-27 14:23:00,87.2,76.2,29.98,East,98,2.0,15.0,70,0.00,,,0.00,Weather View 32 v70,2013-08-27 18:23:00,
2013-08-27 14:28:00,87.0,76.0,29.98,East,92,1.0,15.0,70,0.00,,,0.00,Weather View 32 v70,2013-08-27 18:28:00,
2013-08-27 14:33:00,87.4,75.0,29.98,East,85,7.0,15.0,67,0.00,,,0.00,Weather View 32 v70,2013-08-27 18:33:00,
2013-08-27 14:38:00,87.4,74.1,29.98,SE,127,8.0,15.0,65,0.00,,,0.00,Weather View 32 v70,2013-08-27 18:38:00,
2013-08-27 14:43:00,85.9,73.2,29.98,SE,128,12.0,15.0,66,0.00,,,0.00,Weather View 32 v70,2013-08-27 18:43:00,
2013-08-27 14:48:00,83.8,73.8,29.97,ESE,122,0.0,15.0,72,0.00,,,0.00,Weather View 32 v70,2013-08-27 18:48:00,
2013-08-27 14:53:00,82.8,73.2,29.97,SE,125,0.0,15.0,73,0.00,,,0.00,Weather View 32 v70,2013-08-27 18:53:00,
2013-08-27 14:58:00,83.2,73.6,29.97,SE,125,0.0,15.0,73,0.00,,,0.00,Weather View 32 v70,2013-08-27 18:58:00,
2013-08-27 15:00:00,83.7,73.7,29.97,SE,131,0.0,15.0,72,0.00,,,0.00,Weather View 32 v70,2013-08-27 19:00:00,
2013-08-27 15:03:00,84.6,73.7,29.97,South,190,1.0,15.0,70,0.00,,,0.00,Weather View 32 v70,2013-08-27 19:03:00,
2013-08-27 15:09:00,85.6,75.1,29.97,South,180,0.0,15.0,71,0.00,,,0.00,Weather View 32 v70,2013-08-27 19:09:00,
2013-08-27 15:14:00,86.4,75.8,29.97,SE,144,0.0,15.0,71,0.00,,,0.00,Weather View 32 v70,2013-08-27 19:14:00,
2013-08-27 15:19:00,86.5,75.5,29.97,SE,134,0.0,14.0,70,0.00,,,0.00,Weather View 32 v70,2013-08-27 19:19:00,
2013-08-27 15:24:00,87.2,77.0,29.97,SE,137,0.0,14.0,72,0.00,,,0.00,Weather View 32 v70,2013-08-27 19:24:00,
2013-08-27 15:29:00,87.8,78.0,29.97,SE,143,0.0,14.0,73,0.00,,,0.00,Weather View 32 v70,2013-08-27 19:29:00,
2013-08-27 15:34:00,87.2,76.2,29.97,SSE,153,0.0,14.0,70,0.00,,,0.00,Weather View 32 v70,2013-08-27 19:34:00,
2013-08-27 15:39:00,86.7,74.8,29.97,SW,215,1.0,14.0,68,0.00,,,0.00,Weather View 32 v70,2013-08-27 19:39:00,
2013-08-27 15:44:00,86.4,75.0,29.97,SSW,211,3.0,12.0,69,0.00,,,0.00,Weather View 32 v70,2013-08-27 19:44:00,
2013-08-27 15:49:00,85.9,75.4,29.97,SSW,203,1.0,9.0,71,0.00,,,0.00,Weather View 32 v70,2013-08-27 19:49:00,
2013-08-27 15:54:00,85.6,76.3,29.97,SW,223,3.0,9.0,74,0.00,,,0.00,Weather View 32 v70,2013-08-27 19:54:00,
2013-08-27 15:59:00,84.8,76.4,29.97,SSW,193,4.0,9.0,76,0.00,,,0.00,Weather View 32 v70,2013-08-27 19:59:00,
2013-08-27 16:00:00,84.6,76.2,29.97,SSW,196,0.0,9.0,76,0.00,,,0.00,Weather View 32 v70,2013-08-27 20:00:00,
2013-08-27 16:04:00,84.6,76.2,29.96,WSW,238,1.0,9.0,76,0.00,,,0.00,Weather View 32 v70,2013-08-27 20:04:00,
2013-08-27 16:09:00,85.0,75.7,29.96,WSW,237,0.0,9.0,74,0.00,,,0.00,Weather View 32 v70,2013-08-27 20:09:00,
2013-08-27 16:14:00,85.9,75.8,29.96,WSW,237,0.0,9.0,72,0.00,,,0.00,Weather View 32 v70,2013-08-27 20:14:00,
2013-08-27 16:19:00,86.8,76.2,29.95,SW,230,2.0,9.0,71,0.00,,,0.00,Weather View 32 v70,2013-08-27 20:19:00,
2013-08-27 16:24:00,87.1,75.6,29.96,SSW,207,0.0,9.0,69,0.00,,,0.00,Weather View 32 v70,2013-08-27 20:24:00,
2013-08-27 16:29:00,87.9,76.8,29.96,SSW,206,0.0,9.0,70,0.00,,,0.00,Weather View 32 v70,2013-08-27 20:29:00,
2013-08-27 16:34:00,88.8,75.5,29.96,SSW,207,0.0,9.0,65,0.00,,,0.00,Weather View 32 v70,2013-08-27 20:34:00,
2013-08-27 16:39:00,88.4,76.9,29.96,WSW,248,7.0,9.0,69,0.00,,,0.00,Weather View 32 v70,2013-08-27 20:39:00,
2013-08-27 16:44:00,87.1,76.5,29.96,WSW,239,4.0,9.0,71,0.00,,,0.00,Weather View 32 v70,2013-08-27 20:44:00,
2013-08-27 16:49:00,86.1,76.0,29.96,SSW,206,5.0,12.0,72,0.00,,,0.00,Weather View 32 v70,2013-08-27 20:49:00,
2013-08-27 16:54:00,85.4,76.1,29.96,SSW,213,2.0,12.0,74,0.00,,,0.00,Weather View 32 v70,2013-08-27 20:54:00,
2013-08-27 16:59:00,85.1,76.2,29.96,WSW,239,5.0,12.0,75,0.00,,,0.00,Weather View 32 v70,2013-08-27 20:59:00,
2013-08-27 17:00:00,85.0,76.5,29.96,SW,214,4.0,12.0,76,0.00,,,0.00,Weather View 32 v70,2013-08-27 21:00:00,
2013-08-27 17:04:00,84.9,76.8,29.96,SSW,202,4.0,12.0,77,0.00,,,0.00,Weather View 32 v70,2013-08-27 21:04:00,
2013-08-27 17:09:00,84.5,77.2,29.96,SSW,195,4.0,12.0,79,0.00,,,0.00,Weather View 32 v70,2013-08-27 21:09:00,
2013-08-27 17:14:00,83.1,77.0,29.97,SSW,213,1.0,12.0,82,0.00,,,0.00,Weather View 32 v70,2013-08-27 21:14:00,
2013-08-27 17:27:00,81.1,76.1,29.99,SSW,198,0.0,12.0,85,0.00,,,0.00,Weather View 32 v70,2013-08-27 21:27:00,
2013-08-27 17:32:00,80.7,76.1,29.98,SE,134,0.0,12.0,86,0.00,,,0.01,Weather View 32 v70,2013-08-27 21:32:00,
2013-08-27 17:38:00,80.6,76.4,29.98,SE,135,0.0,12.0,87,0.01,,,0.01,Weather View 32 v70,2013-08-27 21:38:00,
2013-08-27 17:45:00,79.7,76.2,29.98,South,188,2.0,12.0,89,0.02,,,0.02,Weather View 32 v70,2013-08-27 21:45:00,
2013-08-27 17:50:00,79.2,75.7,29.98,SSW,194,0.0,12.0,89,0.02,,,0.02,Weather View 32 v70,2013-08-27 21:50:00,
2013-08-27 17:55:00,79.0,75.5,29.98,SSW,194,0.0,12.0,89,0.02,,,0.02,Weather View 32 v70,2013-08-27 21:55:00,
2013-08-27 18:00:00,79.0,75.5,29.98,SSW,208,1.0,10.0,89,0.02,,,0.02,Weather View 32 v70,2013-08-27 22:00:00,
2013-08-27 18:05:00,79.0,75.5,29.98,SW,214,4.0,9.0,89,0.02,,,0.02,Weather View 32 v70,2013-08-27 22:05:00,
2013-08-27 18:10:00,79.0,75.5,29.98,SW,221,0.0,8.0,89,0.02,,,0.02,Weather View 32 v70,2013-08-27 22:10:00,
2013-08-27 18:15:00,79.2,75.7,29.99,SW,221,0.0,7.0,89,0.02,,,0.02,Weather View 32 v70,2013-08-27 22:15:00,
2013-08-27 18:20:00,79.1,75.6,29.99,SW,221,0.0,7.0,89,0.02,,,0.02,Weather View 32 v70,2013-08-27 22:20:00,
2013-08-27 18:25:00,79.2,75.7,29.98,SW,221,0.0,7.0,89,0.02,,,0.02,Weather View 32 v70,2013-08-27 22:25:00,
2013-08-27 18:30:00,79.3,76.1,29.98,SW,221,0.0,6.0,90,0.02,,,0.02,Weather View 32 v70,2013-08-27 22:30:00,
2013-08-27 18:35:00,79.3,76.1,29.98,SW,221,0.0,5.0,90,0.01,,,0.02,Weather View 32 v70,2013-08-27 22:35:00,
2013-08-27 18:40:00,79.3,75.8,29.98,SW,221,0.0,5.0,89,0.00,,,0.02,Weather View 32 v70,2013-08-27 22:40:00,
2013-08-27 18:45:00,79.2,75.7,29.97,SW,221,0.0,5.0,89,0.00,,,0.02,Weather View 32 v70,2013-08-27 22:45:00,
2013-08-27 18:50:00,79.1,75.6,29.97,SW,221,3.0,5.0,89,0.00,,,0.02,Weather View 32 v70,2013-08-27 22:50:00,
2013-08-27 18:55:00,79.0,75.5,29.97,SW,221,0.0,5.0,89,0.00,,,0.02,Weather View 32 v70,2013-08-27 22:55:00,
2013-08-27 19:00:00,79.0,75.5,29.97,SW,221,0.0,5.0,89,0.00,,,0.02,Weather View 32 v70,2013-08-27 23:00:00,
2013-08-27 19:05:00,79.1,75.2,29.97,SW,221,0.0,5.0,88,0.00,,,0.02,Weather View 32 v70,2013-08-27 23:05:00,
2013-08-27 19:10:00,79.2,75.3,29.97,SW,221,0.0,4.0,88,0.00,,,0.02,Weather View 32 v70,2013-08-27 23:10:00,
2013-08-27 19:15:00,79.4,75.5,29.96,SW,221,0.0,4.0,88,0.00,,,0.02,Weather View 32 v70,2013-08-27 23:15:00,
2013-08-27 19:20:00,79.7,75.8,29.96,SW,221,0.0,4.0,88,0.00,,,0.02,Weather View 32 v70,2013-08-27 23:20:00,
2013-08-27 19:25:00,79.8,75.6,29.97,SW,221,0.0,4.0,87,0.00,,,0.02,Weather View 32 v70,2013-08-27 23:25:00,
2013-08-27 19:30:00,79.8,75.6,29.97,SW,221,0.0,4.0,87,0.00,,,0.02,Weather View 32 v70,2013-08-27 23:30:00,
2013-08-27 19:35:00,79.7,75.1,29.97,SW,221,0.0,4.0,86,0.00,,,0.02,Weather View 32 v70,2013-08-27 23:35:00,
2013-08-27 19:40:00,79.5,74.9,29.97,SW,221,0.0,4.0,86,0.00,,,0.02,Weather View 32 v70,2013-08-27 23:40:00,
2013-08-27 19:45:00,79.2,74.3,29.97,SW,221,0.0,4.0,85,0.00,,,0.02,Weather View 32 v70,2013-08-27 23:45:00,
2013-08-27 19:50:00,79.0,73.4,29.97,SW,221,0.0,4.0,83,0.00,,,0.02,Weather View 32 v70,2013-08-27 23:50:00,
2013-08-27 19:55:00,78.9,72.9,29.97,SW,221,1.0,4.0,82,0.00,,,0.02,Weather View 32 v70,2013-08-27 23:55:00,
2013-08-27 20:00:00,78.8,73.2,29.97,SW,221,0.0,4.0,83,0.00,,,0.02,Weather View 32 v70,2013-08-28 00:00:00,
2013-08-27 20:05:00,78.8,73.2,29.98,SW,221,0.0,4.0,83,0.00,,,0.02,Weather View 32 v70,2013-08-28 00:05:00,
2013-08-27 20:10:00,78.6,73.3,29.98,SW,221,0.0,4.0,84,0.00,,,0.02,Weather View 32 v70,2013-08-28 00:10:00,
2013-08-27 20:15:00,78.4,73.1,29.98,SW,221,0.0,4.0,84,0.00,,,0.02,Weather View 32 v70,2013-08-28 00:15:00,
2013-08-27 20:20:00,78.2,73.3,29.98,SW,221,0.0,4.0,85,0.00,,,0.02,Weather View 32 v70,2013-08-28 00:20:00,
2013-08-27 20:25:00,78.1,73.5,29.98,SW,221,0.0,4.0,86,0.00,,,0.02,Weather View 32 v70,2013-08-28 00:25:00,
2013-08-27 20:30:00,77.9,73.4,29.98,SW,221,0.0,4.0,86,0.00,,,0.02,Weather View 32 v70,2013-08-28 00:30:00,
2013-08-27 20:36:00,77.8,73.3,29.98,SW,221,0.0,4.0,86,0.00,,,0.02,Weather View 32 v70,2013-08-28 00:36:00,
2013-08-27 20:41:00,77.6,73.4,29.98,SW,221,0.0,4.0,87,0.00,,,0.02,Weather View 32 v70,2013-08-28 00:41:00,
2013-08-27 20:46:00,77.5,73.3,29.98,SW,221,0.0,4.0,87,0.00,,,0.02,Weather View 32 v70,2013-08-28 00:46:00,
2013-08-27 20:51:00,77.4,72.9,29.98,SW,221,0.0,3.0,86,0.00,,,0.02,Weather View 32 v70,2013-08-28 00:51:00,
2013-08-27 20:56:00,77.4,72.5,29.98,SW,221,0.0,1.0,85,0.00,,,0.02,Weather View 32 v70,2013-08-28 00:56:00,
2013-08-27 21:00:00,77.4,72.5,29.98,SW,221,0.0,1.0,85,0.00,,,0.02,Weather View 32 v70,2013-08-28 01:00:00,
2013-08-27 21:01:00,77.4,72.5,29.98,SW,221,0.0,1.0,85,0.00,,,0.02,Weather View 32 v70,2013-08-28 01:01:00,
2013-08-27 21:06:00,77.4,72.2,29.98,SW,221,0.0,1.0,84,0.00,,,0.02,Weather View 32 v70,2013-08-28 01:06:00,
2013-08-27 21:11:00,77.3,72.1,29.98,SW,221,2.0,2.0,84,0.00,,,0.02,Weather View 32 v70,2013-08-28 01:11:00,
2013-08-27 21:17:00,77.3,71.7,29.99,SW,220,0.0,2.0,83,0.00,,,0.02,Weather View 32 v70,2013-08-28 01:17:00,
2013-08-27 21:22:00,77.4,71.4,29.99,SW,219,0.0,2.0,82,0.00,,,0.02,Weather View 32 v70,2013-08-28 01:22:00,
2013-08-27 21:27:00,77.4,71.4,29.99,SW,219,1.0,3.0,82,0.00,,,0.02,Weather View 32 v70,2013-08-28 01:27:00,
2013-08-27 21:32:00,77.4,71.4,29.99,SW,219,0.0,3.0,82,0.00,,,0.02,Weather View 32 v70,2013-08-28 01:32:00,
2013-08-27 21:37:00,77.4,71.4,30.00,SW,219,0.0,3.0,82,0.00,,,0.02,Weather View 32 v70,2013-08-28 01:37:00,
2013-08-27 21:42:00,77.4,71.4,30.00,SW,219,0.0,3.0,82,0.00,,,0.02,Weather View 32 v70,2013-08-28 01:42:00,
2013-08-27 21:47:00,77.3,71.3,30.00,SW,219,0.0,3.0,82,0.00,,,0.02,Weather View 32 v70,2013-08-28 01:47:00,
2013-08-27 21:52:00,77.3,71.7,30.01,SW,219,0.0,3.0,83,0.00,,,0.02,Weather View 32 v70,2013-08-28 01:52:00,
2013-08-27 21:57:00,77.3,71.7,30.01,SW,216,0.0,3.0,83,0.00,,,0.02,Weather View 32 v70,2013-08-28 01:57:00,
2013-08-27 22:00:00,77.3,71.7,30.01,SW,216,0.0,4.0,83,0.00,,,0.02,Weather View 32 v70,2013-08-28 02:00:00,
2013-08-27 22:02:00,77.4,71.8,30.01,SW,216,0.0,4.0,83,0.00,,,0.02,Weather View 32 v70,2013-08-28 02:02:00,
2013-08-27 22:07:00,77.4,72.2,30.01,SW,215,0.0,4.0,84,0.00,,,0.02,Weather View 32 v70,2013-08-28 02:07:00,
2013-08-27 22:12:00,77.3,72.1,30.01,SW,215,0.0,4.0,84,0.00,,,0.02,Weather View 32 v70,2013-08-28 02:12:00,
2013-08-27 22:17:00,77.3,72.1,30.01,SW,216,0.0,4.0,84,0.00,,,0.02,Weather View 32 v70,2013-08-28 02:17:00,
2013-08-27 22:22:00,77.2,72.3,30.01,SW,215,0.0,4.0,85,0.00,,,0.02,Weather View 32 v70,2013-08-28 02:22:00,
2013-08-27 22:27:00,77.1,72.6,30.01,SW,215,0.0,4.0,86,0.00,,,0.02,Weather View 32 v70,2013-08-28 02:27:00,
2013-08-27 22:32:00,76.9,72.4,30.01,SW,216,0.0,4.0,86,0.00,,,0.02,Weather View 32 v70,2013-08-28 02:32:00,
2013-08-27 22:37:00,76.8,72.3,30.02,SW,215,0.0,4.0,86,0.00,,,0.02,Weather View 32 v70,2013-08-28 02:37:00,
2013-08-27 22:42:00,76.6,72.4,30.01,SW,216,0.0,4.0,87,0.00,,,0.02,Weather View 32 v70,2013-08-28 02:42:00,
2013-08-27 22:49:00,76.4,72.2,30.01,SW,216,0.0,4.0,87,0.00,,,0.02,Weather View 32 v70,2013-08-28 02:49:00,
2013-08-27 22:54:00,76.3,72.5,30.02,SW,215,0.0,4.0,88,0.00,,,0.02,Weather View 32 v70,2013-08-28 02:54:00,
2013-08-27 22:59:00,76.2,72.4,30.01,SW,216,0.0,0.0,88,0.00,,,0.02,Weather View 32 v70,2013-08-28 02:59:00,
2013-08-27 23:00:00,76.1,72.3,30.01,SW,216,0.0,0.0,88,0.00,,,0.02,Weather View 32 v70,2013-08-28 03:00:00,
2013-08-27 23:04:00,76.0,72.5,30.02,SW,216,0.0,0.0,89,0.00,,,0.02,Weather View 32 v70,2013-08-28 03:04:00,
2013-08-27 23:09:00,76.0,72.5,30.02,SW,215,0.0,0.0,89,0.00,,,0.02,Weather View 32 v70,2013-08-28 03:09:00,
2013-08-27 23:14:00,75.8,72.6,30.02,SW,215,0.0,0.0,90,0.00,,,0.02,Weather View 32 v70,2013-08-28 03:14:00,
2013-08-27 23:19:00,75.7,72.5,30.02,SW,216,0.0,0.0,90,0.00,,,0.02,Weather View 32 v70,2013-08-28 03:19:00,
2013-08-27 23:24:00,75.7,72.5,30.02,SW,216,0.0,0.0,90,0.00,,,0.02,Weather View 32 v70,2013-08-28 03:24:00,
2013-08-27 23:29:00,75.7,72.9,30.02,SW,216,0.0,0.0,91,0.00,,,0.02,Weather View 32 v70,2013-08-28 03:29:00,
2013-08-27 23:34:00,75.7,72.9,30.02,SW,216,0.0,0.0,91,0.00,,,0.02,Weather View 32 v70,2013-08-28 03:34:00,
2013-08-27 23:39:00,75.7,72.9,30.01,SW,215,0.0,0.0,91,0.00,,,0.02,Weather View 32 v70,2013-08-28 03:39:00,
2013-08-27 23:44:00,75.8,73.0,30.02,SW,215,0.0,0.0,91,0.00,,,0.02,Weather View 32 v70,2013-08-28 03:44:00,
2013-08-27 23:49:00,75.8,73.0,30.02,SW,215,0.0,0.0,91,0.00,,,0.02,Weather View 32 v70,2013-08-28 03:49:00,
2013-08-27 23:54:00,75.8,73.0,30.02,SW,216,0.0,0.0,91,0.00,,,0.02,Weather View 32 v70,2013-08-28 03:54:00,
2013-08-27 23:59:00,75.8,73.3,30.02,SW,216,0.0,0.0,92,-0.02,,,0.00,Weather View 32 v70,2013-08-28 03:59:00,